AirNav   ATP
 
 1682 users online  

04MA Goddard Airport
Haverhill, Massachusetts, USA

GOING TO HAVERHILL?


FAA INFORMATION EFFECTIVE 14 SEPTEMBER 2017

Location

FAA Identifier: 04MA
Lat/Long: 42-48-35.3210N / 071-08-21.2110W
42-48.588683N / 071-08.353517W
42.8098114 / -71.1392253
(estimated)
Elevation: 200 ft. / 61 m (estimated)
Variation: 16W (1990)
From city: 3 miles NW of HAVERHILL, MA
Time zone: UTC -4 (UTC -5 during Standard Time)
Zip code: 01832

Airport Operations

Airport use: Private use, PERSONAL USE.
Activation date: 12/1992
Control tower: no
ARTCC: BOSTON CENTER
FSS: BRIDGEPORT FLIGHT SERVICE STATION
Attendance: UNATNDD
Wind indicator: yes
Segmented circle: no

Airport Communications

WX ASOS at LWM (6 nm S): 126.75 (978-687-8017)
WX ASOS at MHT (15 nm NW): 119.55 (603-621-1766)
WX AWOS-3PT at ASH (17 nm W): 125.1 (603-578-0473)
WX ASOS at BVY (17 nm SE): PHONE 978-921-5042

Nearby radio navigation aids

VOR radial/distance  VOR name  Freq  Var
LWMr350/4.6LAWRENCE VOR/DME112.5015W
MHTr124/10.7MANCHESTER VOR/DME114.4015W
PSMr235/21.3PEASE VOR/DME116.5016W
BOSr002/27.9BOSTON VOR/DME112.7016W
CONr157/31.2CONCORD VOR/DME112.9015W

 
NDB name  Hdg/Dist  Freq  Var  ID
HAGET029/10.340215WLW .-.. .--
SHAKER HILL021/21.325116WSKR ... -.- .-.
ROLLINS225/28.226016WESG . ... --.
FITCHBURG075/31.436515WFIT ..-. .. -

Airport Services

Runway Information

Runway 16/34

Dimensions: 2100 x 300 ft. / 640 x 91 m
Surface: turf
RUNWAY 16  RUNWAY 34
Traffic pattern: leftleft

Airport Ownership and Management from official FAA records

Ownership: Privately-owned
Owner: ROBERT J. GODDARD
1020 NORTH BROADWAY
HAVERHILL, MA 01832
Phone 978-372-3642
Manager: ROBERT J. GODDARD
1020 NORTH BROADWAY
HAVERHILL, MA 01832
Phone 978-372-3642

Airport Operational Statistics

Aircraft based on the field: 1
Single engine airplanes: 1
    

Additional Remarks

OWNER DESIRES ARPT NOT BE CHARTED.

Instrument Procedures

There are no published instrument procedures at 04MA.

Some nearby airports with instrument procedures:

KLWM - Lawrence Municipal Airport (6 nm S)
KMHT - Manchester Airport (15 nm NW)
KASH - Boire Field Airport (17 nm W)
KBVY - Beverly Regional Airport (17 nm SE)
KPSM - Portsmouth International Airport at Pease (21 nm NE)
 
Loc | Ops | Rwys | IFR | FBO | Links
Com | Nav | Svcs | Stats | Notes


 
Area around 04MA (Goddard Airport)
 
Road maps at: MapQuest Bing Google
 
Aerial photo
No photo
 
Sectional chart

 
Airport distance calculator
Flying to Goddard Airport? Find the distance to fly.

From to 04MA

Sunrise and sunset
Times for 25-Sep-2017
 Local
(UTC-4)
 Zulu
(UTC)
Morning civil twilight06:0810:08
Sunrise06:3610:36
Sunset18:3622:36
Evening civil twilight19:0523:05

Current date and time
Zulu (UTC)  25-Sep-2017 17:13:18
Local (UTC-4)  25-Sep-2017 13:13:18
 
METAR
KLWM 
6nm S 
251654Z 00000KT 10SM CLR 31/21 A3010 RMK AO2 SLP191 T03060211
KMHT 
15nm NW 
251653Z 12007KT 10SM SCT038 31/21 A3006 RMK AO2 SLP189 T03110211
KBVY 
17nm SE 
251653Z VRB03KT 10SM CLR 28/19 A3008 RMK AO2 SLP179 T02830194
KASH 
17nm W 
251656Z 13005KT 10SM SCT033 31/22 A3009 RMK AO2 SLP195 T03060222
TAF
KMHT 
15nm NW 
251120Z 2512/2612 35003KT P6SM FEW250 FM251800 12006KT P6SM FEW250 FM260800 VRB03KT 2SM BR SKC
NOTAMs
Click for the latest NOTAMs
NOTAMs are issued by the DoD/FAA and will open in a separate window not controlled by AirNav.

 

 
 

Would you like to see your business listed on this page?

 If your business provides an interesting product or service to pilots, flight crews, aircraft, or users of the Goddard Airport, you should consider listing it here.  To start the listing process, click on the button below
 
Add a business
 

Other Pages about Goddard Airport

Update a link
 
Copyright © AirNav, LLC. All rights reserved. Privacy Policy  Contact